User: anonymous   Login
Location: Spradlin Observatory
(33.4706°N, 86.3221°W)
Time: 19:52:24
(UTC-05:00)
Language:

COSMOS 2406 - Orbit

View from above orbital plane
View from above orbital plane
View from above satellite
View from above satellite

Ground track
Ground track

The orbit data is extracted from the following two-line orbital elements,

1 28352U 04021A   16177.08858874 -.00000013  00000-0  18720-4 0  9994
2 28352  70.9994 150.2406 0016194 278.6916  81.2370 14.11436243620455
Epoch (UTC): 25 June 2016 02:07:34
Eccentricity: 0.0016194
inclination: 70.9994°
perigee height: 843 km
apogee height: 866 km
right ascension of ascending node: 150.2406°
argument of perigee: 278.6916°
revolutions per day: 14.11436243
mean anomaly at epoch: 81.2370°
orbit number at epoch: 62045

The dashed part of the orbit path shows where the satellite is in the earth's shadow,  

DLR